�N����,����,�~����,�C��,���x,�C��,����,���ϕ���,�ő�u�ԕ���,�ő厞����,���˗�,�I�_���x,�n�����x,�ő啗���N��,DTYPE
"19/09/13","00:10",0.0,21.7,78.5,1007.6,334.5,2.1,3.7,328.4,0.00,17.8,24.6,"00:00:02",1
"19/09/13","00:20",0.0,21.7,78.2,1007.4,334.4,2.6,4.3,336.0,0.00,17.8,24.6,"00:17:36",1
"19/09/13","00:30",0.0,21.7,78.4,1007.8,338.5,2.0,4.1,353.0,0.00,17.8,24.6,"00:20:32",1
"19/09/13","00:40",0.0,21.7,78.7,1007.6,336.0,1.8,3.4,338.7,0.00,17.9,24.4,"00:34:40",1
"19/09/13","00:50",0.0,21.7,78.6,1007.4,343.4,1.7,3.2,336.0,0.00,17.9,24.4,"00:44:32",1
"19/09/13","01:00",0.0,21.7,78.5,1007.6,328.5,2.5,4.1,327.4,0.00,17.8,24.5,"00:55:12",1
"19/09/13","01:10",0.0,21.8,78.0,1007.4,318.7,2.0,3.2,338.4,0.00,17.8,24.7,"01:04:16",1
"19/09/13","01:20",0.0,21.8,77.7,1007.6,335.0,1.8,3.4,346.8,0.00,17.8,24.4,"01:10:56",1
"19/09/13","01:30",0.0,21.8,77.9,1007.1,336.8,2.1,3.7,336.1,0.00,17.8,24.3,"01:20:56",1
"19/09/13","01:40",0.0,21.8,78.2,1007.1,335.5,2.3,4.2,333.0,0.00,17.9,24.5,"01:36:40",1
"19/09/13","01:50",0.0,21.7,78.5,1007.1,336.9,2.1,3.5,339.7,0.00,17.8,24.5,"01:48:56",1
"19/09/13","02:00",0.0,21.7,78.9,1006.7,330.7,1.8,3.2,332.0,0.00,17.9,24.4,"01:50:40",1
"19/09/13","02:10",0.0,21.6,79.1,1006.7,332.6,1.8,3.4,341.2,0.00,17.9,24.2,"02:00:02",1
"19/09/13","02:20",0.0,21.6,79.2,1006.9,334.7,1.7,3.2,333.8,0.00,17.9,24.2,"02:10:16",1
"19/09/13","02:30",0.0,21.4,79.9,1006.7,329.7,1.7,3.3,335.6,0.00,17.8,24.3,"02:21:36",1
"19/09/13","02:40",0.0,21.4,80.1,1006.7,317.3,1.1,1.9,333.9,0.00,17.9,24.3,"02:30:32",1
"19/09/13","02:50",0.0,21.5,80.4,1006.4,301.3,1.2,2.9,322.6,0.00,18.0,24.2,"02:48:32",1
"19/09/13","03:00",0.0,21.4,80.8,1006.7,299.9,1.1,2.0,322.6,0.00,18.0,24.2,"02:50:24",1
"19/09/13","03:10",0.0,21.4,81.2,1006.7,316.7,1.2,2.2,323.7,0.00,18.1,24.3,"03:03:12",1
"19/09/13","03:20",0.0,21.3,82.1,1006.7,297.0,1.0,1.8,335.5,0.00,18.2,24.2,"03:15:52",1
"19/09/13","03:30",0.0,21.2,82.7,1006.7,282.3,1.0,1.9,257.2,0.00,18.2,24.2,"03:29:12",1
"19/09/13","03:40",0.0,21.1,83.1,1006.9,296.9,1.5,3.1,340.9,0.00,18.2,24.3,"03:32:56",1
"19/09/13","03:50",0.0,21.3,83.0,1006.9,328.3,1.6,2.8,332.2,0.00,18.3,24.2,"03:48:00",1
"19/09/13","04:00",0.0,21.4,82.3,1007.1,334.4,2.3,4.3,339.1,0.00,18.3,24.2,"03:57:28",1
"19/09/13","04:10",0.0,21.6,81.5,1007.4,333.2,2.1,3.6,331.0,0.00,18.3,24.3,"04:09:20",1
"19/09/13","04:20",0.0,21.6,82.0,1006.7,332.5,1.8,4.5,343.6,0.00,18.4,24.2,"04:11:52",1
"19/09/13","04:30",0.0,21.3,83.1,1007.4,280.6,1.3,2.0,347.2,0.00,18.4,24.0,"04:20:08",1
"19/09/13","04:40",0.0,21.1,84.0,1006.9,315.0,2.0,5.7,337.6,0.00,18.3,24.2,"04:39:20",1
"19/09/13","04:50",0.0,21.1,84.7,1007.1,329.8,2.5,4.3,336.3,0.00,18.5,24.0,"04:46:00",1
"19/09/13","05:00",0.0,21.0,86.1,1007.4,322.4,1.5,2.8,330.6,0.00,18.6,23.9,"04:50:32",1
"19/09/13","05:10",0.0,20.7,87.3,1007.4,331.5,1.3,2.8,336.3,0.00,18.6,24.2,"05:02:00",1
"19/09/13","05:20",0.0,20.6,88.3,1006.9,276.0,1.0,2.0,314.8,0.00,18.6,23.9,"05:11:44",1
"19/09/13","05:30",0.2,20.6,89.3,1006.7,293.9,1.2,2.2,346.0,0.00,18.8,23.9,"05:25:04",1
"19/09/13","05:40",0.0,20.4,90.0,1007.4,272.1,1.3,2.6,239.4,0.00,18.7,23.8,"05:30:48",1
"19/09/13","05:50",0.0,20.5,90.5,1006.9,318.7,1.6,3.2,334.6,0.00,18.9,23.9,"05:42:16",1
"19/09/13","06:00",0.0,20.5,90.8,1007.4,319.1,1.2,3.5,333.6,0.00,19.0,23.9,"05:51:04",1
"19/09/13","06:10",0.0,20.4,91.2,1007.8,321.9,1.5,2.8,337.7,0.00,19.0,23.9,"06:00:02",1
"19/09/13","06:20",0.2,20.3,91.5,1007.8,340.0,1.6,3.7,341.8,0.00,18.9,23.8,"06:14:24",1
"19/09/13","06:30",0.0,20.2,91.7,1007.8,340.8,1.8,3.4,331.2,0.00,18.8,23.9,"06:27:52",1
"19/09/13","06:40",0.0,20.3,91.9,1007.8,338.5,2.0,4.5,335.9,0.00,19.0,23.7,"06:38:24",1
"19/09/13","06:50",0.2,20.3,92.2,1007.8,316.8,1.5,3.1,309.8,0.00,19.0,24.0,"06:47:04",1
"19/09/13","07:00",0.0,20.4,92.6,1008.1,276.5,1.0,1.9,326.8,0.00,19.2,23.7,"06:53:28",1
"19/09/13","07:10",0.0,20.5,92.8,1007.8,292.6,1.0,2.1,353.2,0.00,19.3,23.7,"07:00:02",1
"19/09/13","07:20",0.2,20.5,92.8,1008.1,287.4,1.2,2.4,343.0,0.00,19.3,23.8,"07:10:40",1
"19/09/13","07:30",0.0,20.6,92.9,1007.8,293.3,1.2,2.1,315.9,0.00,19.5,23.9,"07:20:56",1
"19/09/13","07:40",0.2,20.5,93.1,1007.8,261.7,1.1,2.6,268.2,0.00,19.4,23.8,"07:36:08",1
"19/09/13","07:50",0.0,20.6,93.2,1008.3,291.6,1.1,2.7,318.8,0.00,19.5,23.6,"07:40:24",1
"19/09/13","08:00",0.2,20.7,93.5,1008.3,324.5,1.3,2.8,342.5,0.00,19.7,23.7,"07:56:16",1
"19/09/13","08:10",0.0,20.8,93.4,1008.3,279.6,0.7,1.7,356.3,0.00,19.7,23.7,"08:00:16",1
"19/09/13","08:20",0.2,20.8,93.4,1008.6,280.4,0.6,1.4,335.5,0.00,19.7,23.7,"08:11:52",1
"19/09/13","08:30",0.0,20.8,93.7,1008.6,311.5,0.8,1.8,343.8,0.00,19.8,23.6,"08:25:36",1
"19/09/13","08:40",0.0,20.9,93.9,1008.8,283.2,0.7,2.2,234.1,0.00,19.9,23.9,"08:37:20",1
"19/09/13","08:50",0.2,21.1,94.1,1008.3,278.0,0.5,1.4,255.0,0.00,20.2,23.7,"08:43:04",1
"19/09/13","09:00",0.0,21.2,94.0,1008.6,273.3,0.6,1.1,327.3,0.00,20.2,23.6,"08:51:36",1
"19/09/13","09:10",0.2,21.4,94.1,1008.6,279.3,0.6,1.7,263.4,0.02,20.5,23.8,"09:07:20",1
"19/09/13","09:20",0.0,21.5,94.2,1008.3,296.4,0.8,1.7,334.8,0.03,20.6,23.7,"09:18:00",1
"19/09/13","09:30",0.0,21.8,94.2,1008.8,306.3,1.0,2.4,338.8,0.00,20.9,23.9,"09:21:44",1
"19/09/13","09:40",0.2,21.9,94.2,1008.8,297.5,0.5,1.2,333.6,0.01,21.0,23.8,"09:34:56",1
"19/09/13","09:50",0.0,22.1,94.3,1008.8,290.9,0.6,1.3,329.8,0.02,21.2,24.0,"09:43:36",1
"19/09/13","10:00",0.2,22.3,94.4,1008.8,267.7,0.5,0.9,244.9,0.03,21.4,23.7,"09:52:48",1
"19/09/13","10:10",0.0,22.4,94.1,1008.6,318.7,0.3,0.8,318.5,0.05,21.4,24.0,"10:01:44",1
"19/09/13","10:20",0.0,22.6,94.1,1008.3,352.4,0.5,1.0,341.5,0.05,21.6,23.8,"10:17:52",1
"19/09/13","10:30",0.2,22.7,94.2,1008.3,274.0,0.5,0.9,317.2,0.04,21.8,24.0,"10:20:08",1
"19/09/13","10:40",0.0,22.9,94.4,1008.6,281.7,0.2,1.3,120.0,0.06,22.0,24.0,"10:38:00",1
"19/09/13","10:50",0.0,22.9,93.7,1008.1,2.0,0.5,1.1,318.3,0.07,21.9,24.3,"10:47:28",1
"19/09/13","11:00",0.2,22.8,93.6,1007.4,23.2,0.5,1.3,39.2,0.07,21.8,24.5,"10:59:28",1
"19/09/13","11:10",0.0,22.8,93.2,1007.6,17.9,0.6,1.7,358.1,0.09,21.7,24.4,"11:06:16",1
"19/09/13","11:20",0.0,23.1,92.7,1007.1,38.2,0.7,1.6,328.6,0.13,21.9,24.4,"11:19:28",1
"19/09/13","11:30",0.0,23.5,90.7,1007.1,49.1,0.6,1.8,10.9,0.13,21.9,24.3,"11:22:08",1
"19/09/13","11:40",0.2,23.8,88.9,1007.4,22.7,1.0,2.5,45.8,0.12,21.9,24.3,"11:34:16",1
"19/09/13","11:50",0.0,23.9,87.0,1007.6,14.3,1.0,2.5,352.8,0.09,21.6,24.5,"11:47:52",1
"19/09/13","12:00",0.0,23.9,86.3,1008.1,5.5,0.7,1.4,324.0,0.02,21.5,24.8,"11:59:44",1
"19/09/13","12:10",0.0,23.9,85.8,1007.1,355.4,0.8,1.9,0.7,0.05,21.4,24.7,"12:04:48",1
"19/09/13","12:20",0.0,23.9,85.7,1006.7,18.5,0.7,1.8,26.4,0.07,21.4,24.8,"12:19:04",1
"19/09/13","12:30",0.2,24.1,84.2,1006.4,6.0,1.0,2.7,27.8,0.11,21.3,24.6,"12:29:28",1
"19/09/13","12:40",0.0,24.3,82.9,1006.9,7.5,0.8,2.5,15.8,0.07,21.2,24.9,"12:30:16",1
"19/09/13","12:50",0.0,24.3,82.5,1006.7,358.9,1.0,2.2,21.2,0.06,21.2,24.8,"12:40:32",1
"19/09/13","13:00",0.0,24.4,82.9,1006.7,0.9,0.8,2.4,2.6,0.05,21.3,24.8,"12:52:24",1
"19/09/13","13:10",0.2,24.1,82.7,1006.7,11.4,1.1,2.1,27.0,0.03,21.0,24.9,"13:06:16",1
"19/09/13","13:20",0.0,24.4,82.5,1006.4,3.8,0.7,1.7,45.0,0.06,21.3,25.0,"13:17:20",1
"19/09/13","13:30",0.0,24.6,81.5,1006.7,0.4,1.1,2.9,13.9,0.09,21.3,24.8,"13:28:16",1
"19/09/13","13:40",0.0,24.4,80.8,1006.4,32.2,1.2,2.8,36.6,0.07,20.9,25.0,"13:33:28",1
"19/09/13","13:50",0.0,24.5,80.5,1006.7,70.9,1.3,4.1,109.3,0.03,21.0,25.0,"13:43:44",1
"19/09/13","14:00",0.2,24.4,80.7,1006.7,67.6,1.0,2.5,99.6,0.03,20.9,25.0,"13:52:00",1
"19/09/13","14:10",0.0,24.4,80.7,1006.7,52.1,1.1,2.7,36.9,0.05,20.9,24.9,"14:09:36",1
"19/09/13","14:20",0.0,24.6,79.4,1006.2,67.9,1.3,3.9,113.0,0.10,20.8,24.9,"14:10:40",1
"19/09/13","14:30",0.0,24.9,78.9,1006.4,35.6,0.7,2.9,66.5,0.11,21.0,25.0,"14:20:08",1
"19/09/13","14:40",0.2,25.1,77.4,1006.0,33.4,1.0,2.0,38.0,0.12,20.9,24.9,"14:37:04",1
"19/09/13","14:50",0.0,25.5,75.4,1006.2,66.2,1.1,2.9,39.7,0.17,20.9,25.0,"14:42:48",1
"19/09/13","15:00",0.0,25.4,74.5,1006.0,54.9,1.1,2.5,82.0,0.10,20.6,25.0,"14:52:08",1
"19/09/13","15:10",0.0,25.1,74.4,1006.0,26.5,1.2,3.3,56.1,0.05,20.3,25.2,"15:02:24",1
"19/09/13","15:20",0.0,25.1,74.2,1005.7,54.8,1.1,2.6,72.6,0.05,20.2,25.1,"15:18:16",1
"19/09/13","15:30",0.2,25.1,73.9,1005.7,24.7,1.2,3.2,44.7,0.04,20.2,25.1,"15:27:12",1
"19/09/13","15:40",0.0,25.3,73.0,1005.5,42.7,1.3,4.1,68.6,0.08,20.2,25.2,"15:32:40",1
"19/09/13","15:50",0.0,25.5,72.4,1006.0,80.5,1.6,3.4,108.7,0.08,20.2,25.0,"15:45:36",1
"19/09/13","16:00",0.0,25.3,73.6,1005.7,33.8,0.7,1.8,23.9,0.09,20.3,25.1,"15:51:52",1
"19/09/13","16:10",0.2,25.2,73.8,1005.7,51.8,1.3,3.2,112.3,0.09,20.2,25.2,"16:08:08",1
"19/09/13","16:20",0.0,25.3,73.8,1006.2,56.0,1.3,3.1,16.6,0.09,20.3,25.1,"16:14:08",1
"19/09/13","16:30",0.0,25.3,74.0,1006.2,70.8,1.3,3.1,68.6,0.10,20.4,25.2,"16:23:12",1
"19/09/13","16:40",0.0,25.4,72.9,1006.2,87.1,1.6,3.7,79.7,0.08,20.2,25.1,"16:32:40",1
"19/09/13","16:50",0.0,25.6,72.6,1006.4,78.9,1.3,5.2,115.1,0.09,20.4,24.9,"16:42:56",1
"19/09/13","17:00",0.2,25.5,72.3,1006.2,92.5,1.6,4.0,117.5,0.08,20.2,25.0,"16:54:08",1
"19/09/13","17:10",0.0,25.2,73.4,1006.0,64.9,1.5,3.2,25.8,0.06,20.1,25.1,"17:04:24",1
"19/09/13","17:20",0.0,25.0,74.1,1006.7,74.5,1.5,3.6,82.8,0.05,20.1,25.0,"17:14:32",1
"19/09/13","17:30",0.0,25.0,74.8,1006.4,71.9,1.2,2.8,122.6,0.04,20.3,25.0,"17:26:08",1
"19/09/13","17:40",0.0,24.8,74.9,1006.2,72.9,1.3,2.8,49.4,0.02,20.1,25.2,"17:33:28",1
"19/09/13","17:50",0.2,24.6,75.2,1006.4,89.2,1.2,2.6,114.9,0.00,20.0,25.0,"17:47:52",1
"19/09/13","18:00",0.0,24.5,75.7,1006.4,61.8,1.0,2.6,111.6,0.00,20.0,25.0,"17:50:02",1
"19/09/13","18:10",0.0,24.4,75.7,1006.7,102.2,1.6,4.3,102.4,0.00,19.9,25.0,"18:01:44",1
"19/09/13","18:20",0.0,24.3,75.6,1006.7,61.9,1.5,3.3,105.7,0.00,19.8,25.0,"18:16:40",1
"19/09/13","18:30",0.0,24.3,75.6,1006.7,76.7,1.1,2.8,106.4,0.00,19.8,24.8,"18:20:32",1
"19/09/13","18:40",0.2,24.2,75.7,1006.9,358.1,0.8,2.7,43.6,0.00,19.7,24.8,"18:30:40",1
"19/09/13","18:50",0.0,24.1,76.1,1007.1,45.3,1.2,2.8,25.7,0.00,19.7,24.9,"18:46:16",1
"19/09/13","19:00",0.0,24.1,76.4,1006.9,58.7,0.7,1.9,334.6,0.00,19.7,24.6,"18:51:04",1
"19/09/13","19:10",0.0,24.1,76.6,1007.4,53.1,1.0,2.7,111.5,0.00,19.8,24.7,"19:04:32",1
"19/09/13","19:20",0.0,24.0,76.7,1006.9,19.2,0.8,2.8,50.4,0.00,19.7,24.8,"19:12:48",1
"19/09/13","19:30",0.0,24.0,76.7,1007.4,34.8,0.7,2.1,79.7,0.00,19.7,24.7,"19:20:56",1
"19/09/13","19:40",0.2,24.0,76.8,1007.1,41.0,0.6,1.9,137.8,0.00,19.7,24.5,"19:39:04",1
"19/09/13","19:50",0.0,24.0,76.8,1007.6,28.4,0.6,1.8,110.3,0.00,19.7,24.6,"19:48:40",1
"19/09/13","20:00",0.0,24.0,76.3,1007.6,18.3,1.1,3.3,37.2,0.00,19.6,24.7,"19:52:16",1
"19/09/13","20:10",0.0,24.0,76.6,1008.1,352.8,0.6,1.6,37.1,0.00,19.7,24.5,"20:00:48",1
"19/09/13","20:20",0.0,23.9,76.8,1007.6,1.2,0.6,1.7,50.0,0.00,19.6,24.5,"20:19:52",1
"19/09/13","20:30",0.0,23.8,76.7,1008.1,87.3,0.6,1.9,96.6,0.00,19.5,24.3,"20:21:20",1
"19/09/13","20:40",0.0,23.9,76.4,1007.8,61.8,1.0,2.1,347.4,0.00,19.5,24.5,"20:32:00",1
"19/09/13","20:50",0.2,23.8,76.3,1008.1,115.7,1.0,2.5,134.0,0.00,19.4,24.3,"20:41:52",1
"19/09/13","21:00",0.0,23.8,75.8,1008.1,83.4,0.7,2.6,100.4,0.00,19.3,24.4,"20:51:04",1
"19/09/13","21:10",0.0,23.7,76.0,1008.1,115.5,0.6,1.8,111.5,0.00,19.3,24.5,"21:08:32",1
"19/09/13","21:20",0.0,23.6,76.0,1008.3,36.7,0.6,1.4,129.1,0.00,19.2,24.2,"21:14:00",1
"19/09/13","21:30",0.0,23.4,76.4,1008.8,25.0,0.7,1.8,108.5,0.00,19.1,24.2,"21:28:24",1
"19/09/13","21:40",0.0,23.5,76.3,1008.6,348.3,0.7,1.4,94.8,0.00,19.1,24.0,"21:30:24",1
"19/09/13","21:50",0.0,23.3,76.7,1008.6,359.6,0.5,1.8,0.3,0.00,19.0,24.1,"21:49:52",1
"19/09/13","22:00",0.2,23.4,76.5,1008.8,12.8,0.6,1.4,313.0,0.00,19.1,24.1,"21:51:12",1
"19/09/13","22:10",0.0,23.5,76.1,1008.6,335.5,0.8,1.6,337.3,0.00,19.1,23.9,"22:02:16",1
"19/09/13","22:20",0.0,23.4,76.0,1008.6,347.9,0.7,1.7,6.3,0.00,19.0,24.1,"22:15:28",1
"19/09/13","22:30",0.0,23.5,75.7,1008.8,3.3,0.7,1.4,36.4,0.00,19.0,24.0,"22:20:48",1
"19/09/13","22:40",0.0,23.5,75.4,1009.0,348.0,0.6,1.6,35.1,0.00,18.9,24.2,"22:34:40",1
"19/09/13","22:50",0.0,23.5,75.2,1009.0,3.6,0.6,1.3,330.7,0.00,18.9,24.0,"22:40:32",1
"19/09/13","23:00",0.0,23.5,75.4,1008.8,331.9,0.3,1.3,6.4,0.00,18.9,24.0,"22:59:20",1
"19/09/13","23:10",0.0,23.4,75.4,1008.8,9.3,0.6,1.2,17.1,0.00,18.8,24.0,"23:04:56",1
"19/09/13","23:20",0.0,23.5,75.2,1008.6,43.5,0.5,1.0,75.3,0.00,18.9,23.9,"23:11:28",1
"19/09/13","23:30",0.0,23.5,74.9,1008.6,35.0,0.7,2.0,40.0,0.00,18.8,24.1,"23:28:16",1
"19/09/13","23:40",0.2,23.6,74.7,1008.6,20.7,0.7,1.7,356.1,0.00,18.9,24.0,"23:38:00",1
"19/09/13","23:50",0.0,23.4,75.4,1008.1,33.3,0.5,1.6,22.1,0.00,18.8,23.8,"23:45:52",1
"19/09/13","24:00",0.0,23.4,75.4,1007.8,35.6,0.7,1.6,24.0,0.00,18.8,23.9,"23:56:24",1
